sat.trackr.live / text

‹ back to catalog

STARLINK-3388

NORAD 51131 · 2022-005AD

PAYLOAD ACTIVE UNKNOWN

§ Identity

Operator
Country
US
Launch date
2022-01-19
Launch site
AFETR
Launch vehicle
Mass (kg)
RCS (m²)

Purposes: comms

External: N2YO · Heavens-Above · Gunter

§ Orbital elements

Epoch: 2026-09-20T03:33:05.511744Z

Period
94.01 min
Inclination
53.1585°
Eccentricity
0.0001184
Mean motion
15.31698060 rev/d
Perigee alt
469.9 km
Apogee alt
471.6 km
Semi-major
6,848.9 km
B*
2.6320e-6
RAAN
131.4325°
Arg perigee
89.7507°
Mean anomaly
270.3630°
Rev number
25,828

§ Raw data

STARLINK-33881 51131U 22005AD  26263.14798046 -.00000283  00000+0  26320-5 0  99992 51131  53.1585 131.4325 0001184  89.7507 270.3630 15.31698060258284

JSON: /api/v1/satellites/51131 · /tle

For live sub-satellite position, see the globe view (requires WebGL).

§ Visibility from observer

Set your observer location to see the next 7 days of passes ≥ 10°. The values pass through the URL so the page stays shareable.

No JS? Fill the form by hand. The geolocation button needs JavaScript.